Date,TemperatureHighF,TemperatureAvgF,TemperatureLowF,DewpointHighF,DewpointAvgF,DewpointLowF,HumidityHigh,HumidityAvg,HumidityLow,PressureMaxIn,PressureMinIn,WindSpeedMaxMPH,WindSpeedAvgMPH,GustSpeedMaxMPH,PrecipitationSumIn
2013-1-1,25.7,18.3,11.9,15.2,8.4,2.5,78,66,51,29.93,29.82,6,1,6,0.00
2013-1-2,31.5,21.5,14.0,11.5,4.9,-1.3,60,49,32,30.06,29.92,7,1,7,0.00
2013-1-3,32.8,19.7,9.4,9.0,2.2,-3.3,59,47,33,30.07,29.97,5,0,5,0.00
2013-1-4,42.3,28.1,20.5,17.0,7.9,2.0,53,43,29,30.00,29.87,4,0,4,0.00
2013-1-5,36.0,25.6,19.8,14.8,9.2,4.5,60,50,40,30.07,29.89,6,1,6,0.00
2013-1-6,46.4,32.9,20.5,14.1,6.5,-0.3,51,34,22,30.06,29.80,3,0,3,0.00
2013-1-7,49.7,38.3,29.7,15.1,9.0,6.5,37,30,20,29.87,29.69,6,0,6,0.00
2013-1-8,48.2,40.0,33.7,19.9,14.3,4.1,43,35,23,30.04,29.68,16,3,16,0.00
2013-1-9,51.5,38.4,29.0,20.1,15.1,11.5,50,39,28,30.10,29.86,8,1,8,0.00
2013-1-10,49.7,37.7,29.2,19.4,12.2,8.0,43,35,27,29.86,29.40,6,1,6,0.00
2013-1-11,36.7,27.3,10.3,22.3,8.8,-4.0,73,48,21,29.63,29.26,17,2,17,0.00
2013-1-12,15.8,9.4,3.8,5.8,1.2,-4.1,74,69,63,29.79,29.63,6,0,6,0.00
2013-1-13,16.0,8.3,2.2,5.7,-0.3,-6.4,70,68,62,29.88,29.77,5,0,5,0.00
2013-1-14,13.3,6.3,0.9,2.5,-2.7,-7.6,69,66,60,29.91,29.82,4,0,4,0.00
2013-1-15,32.0,19.8,2.0,15.5,5.8,-7.0,67,55,40,29.94,29.83,3,0,3,0.00
2013-1-16,48.4,35.7,26.5,26.6,18.5,13.7,61,50,37,30.16,29.94,5,0,5,0.00
2013-1-17,47.0,33.6,24.8,24.3,16.2,10.4,61,50,34,30.23,30.03,5,0,5,0.00
2013-1-18,51.5,44.3,30.6,11.4,5.5,1.8,42,21,14,30.03,29.90,24,5,24,0.00
2013-1-19,51.7,42.5,32.0,11.8,4.9,-0.8,32,21,17,30.07,29.93,13,1,13,0.00
2013-1-20,49.1,33.8,22.7,12.6,8.4,4.7,55,35,22,30.07,29.95,9,1,9,0.00
2013-1-21,50.8,36.7,21.1,18.6,8.9,-5.8,64,36,12,30.02,29.89,13,2,13,0.00
2013-1-22,57.6,48.1,40.1,6.3,-1.6,-8.9,22,12,5,30.00,29.86,23,3,23,0.00
2013-1-23,61.9,50.6,40.7,6.4,-1.4,-11.6,18,11,5,30.03,29.98,10,1,10,0.00
2013-1-24,56.3,46.4,38.7,20.6,6.0,-3.2,45,21,11,29.99,29.85,7,1,7,0.00
2013-1-25,50.4,40.3,33.5,27.0,21.7,18.4,57,47,39,30.00,29.93,4,0,4,0.00
2013-1-26,53.3,42.3,33.5,31.2,25.8,21.4,68,53,37,29.93,29.66,5,1,5,0.00
2013-1-27,54.4,42.9,35.3,36.1,26.4,17.3,75,54,26,29.69,29.62,9,1,9,0.00
2013-1-28,47.5,35.4,25.2,27.7,21.5,15.9,82,58,38,29.64,29.50,10,1,10,0.00
2013-1-29,31.1,24.1,14.0,20.0,10.6,-0.1,80,58,31,29.76,29.56,9,1,9,0.00
2013-1-30,36.4,27.2,11.9,14.8,7.9,-1.3,58,45,31,29.76,29.63,20,3,20,0.00
2013-1-31,42.3,33.6,23.6,24.4,17.0,12.2,70,51,36,29.95,29.71,13,2,13,0.00
2013-2-1,45.4,34.2,25.4,24.1,16.3,13.4,66,49,31,30.01,29.88,12,2,12,0.00
2013-2-2,53.3,36.8,24.7,23.2,15.1,7.7,66,45,18,30.11,30.01,14,2,14,0.00
2013-2-3,53.1,39.7,29.0,18.7,9.8,-1.2,49,32,12,30.07,29.77,10,1,10,0.00
2013-2-4,54.2,42.2,32.4,13.9,7.8,2.4,33,25,14,29.83,29.72,19,3,19,0.00
2013-2-5,52.6,43.2,31.7,20.2,15.8,9.0,42,33,28,29.91,29.74,11,1,11,0.00
2013-2-6,52.6,41.7,31.3,27.9,21.9,16.7,76,47,30,29.93,29.71,8,1,8,0.00
2013-2-7,42.8,32.9,24.5,26.7,17.1,8.7,77,54,31,29.99,29.87,8,1,8,0.00
2013-2-8,46.6,34.0,24.1,12.3,5.0,1.6,43,30,17,29.87,29.61,9,1,9,0.00
2013-2-9,38.5,30.6,24.8,23.5,15.4,3.3,77,55,32,29.61,29.46,7,1,7,0.00
2013-2-10,34.4,28.0,20.0,21.1,12.0,5.4,77,52,31,29.86,29.48,14,2,14,0.00
2013-2-11,27.0,20.9,15.8,15.8,11.9,7.7,73,68,62,29.87,29.79,6,0,6,0.00
2013-2-12,37.8,25.6,14.2,16.0,6.1,0.3,73,46,24,29.87,29.83,8,1,8,0.00
2013-2-13,43.6,32.9,22.0,15.1,9.7,4.0,51,38,28,29.87,29.75,17,2,17,0.00
2013-2-14,35.3,26.4,19.6,20.4,14.9,10.0,73,62,43,30.07,29.84,10,1,10,0.00
2013-2-15,38.0,26.6,15.5,24.2,10.9,2.4,74,55,24,30.07,30.00,12,2,12,0.00
2013-2-16,52.6,41.5,22.9,17.4,11.6,6.5,63,31,20,30.00,29.83,23,4,23,0.00
2013-2-17,57.8,42.3,32.0,12.9,5.5,-0.6,42,24,11,29.83,29.52,15,2,15,0.00
2013-2-18,38.0,29.5,20.3,17.4,5.6,-0.8,64,38,21,29.90,29.65,12,2,12,0.00
2013-2-19,38.2,27.5,17.6,13.6,7.3,1.1,50,42,31,29.91,29.66,5,1,5,0.00
2013-2-20,37.1,25.7,19.3,20.6,13.6,7.9,79,61,42,29.66,29.53,7,1,7,0.00
2013-2-21,28.6,22.0,15.1,19.5,15.0,8.9,81,74,65,29.72,29.57,5,1,5,0.00
2013-2-22,31.3,23.0,15.1,19.8,14.4,8.6,78,70,60,29.78,29.67,7,1,7,0.00
2013-2-23,38.5,27.9,16.4,21.5,15.2,7.6,74,59,47,29.69,29.52,7,1,7,0.00
2013-2-24,29.5,27.1,22.5,22.5,20.4,15.1,82,76,68,29.91,29.61,10,1,10,0.00
2013-2-25,32.6,23.6,11.7,19.4,13.2,5.8,79,65,51,29.90,29.68,6,1,6,0.00
2013-2-26,35.1,28.0,20.5,25.7,16.5,8.9,79,62,47,29.94,29.65,11,1,11,0.00
2013-2-27,35.6,24.0,14.8,14.2,9.0,3.3,65,53,38,30.02,29.94,8,1,8,0.00
2013-2-28,42.7,30.1,16.4,16.4,10.2,3.0,62,44,30,30.03,29.97,9,1,9,0.00
2013-3-1,45.5,35.1,23.8,23.0,17.3,7.3,59,49,32,30.11,30.01,8,1,8,0.00
2013-3-2,55.6,45.0,32.9,29.6,24.7,19.4,60,46,30,30.11,29.90,10,2,10,0.00
2013-3-3,58.9,47.4,39.6,28.5,24.4,20.3,53,41,25,29.90,29.57,20,3,20,0.00
2013-3-4,43.7,29.7,18.9,29.3,19.4,6.4,77,66,44,30.00,29.59,13,2,13,0.00
2013-3-5,34.6,24.7,12.2,17.5,12.4,5.4,76,61,39,30.04,29.94,9,1,9,0.00
2013-3-6,51.8,38.0,22.7,29.2,22.2,14.7,72,55,29,29.95,29.74,8,1,8,0.00
2013-3-7,59.6,46.0,35.3,30.7,23.3,18.4,54,42,29,29.85,29.74,8,1,8,0.00
2013-3-8,47.2,37.3,29.9,30.4,25.4,18.8,75,62,49,29.84,29.59,5,1,5,0.00
2013-3-9,35.6,32.5,27.2,30.3,24.8,12.4,86,74,53,29.92,29.55,11,1,11,0.00
2013-3-10,43.9,32.1,16.9,23.3,17.0,8.5,70,54,42,29.94,29.86,9,1,9,0.00
2013-3-11,48.6,39.2,29.9,26.8,20.9,16.1,79,50,32,29.97,29.77,19,3,19,0.00
2013-3-12,32.9,28.4,24.3,24.3,22.3,19.3,83,78,69,30.10,29.97,5,1,5,0.00
2013-3-13,58.0,44.0,28.4,37.4,29.8,23.6,84,60,33,30.10,29.99,10,2,10,0.00
2013-3-14,65.7,54.4,42.1,31.1,24.2,15.9,45,32,16,30.14,30.00,13,2,13,0.00
2013-3-15,72.7,58.9,46.6,30.3,22.0,16.7,41,25,16,30.00,29.79,15,2,15,0.00
2013-3-16,50.8,43.8,36.5,33.0,27.7,23.1,64,54,36,29.90,29.72,8,1,8,0.00
2013-3-17,54.4,41.1,32.4,31.1,21.7,3.8,62,47,28,29.72,29.49,14,3,14,0.00
2013-3-18,44.5,36.6,26.3,16.7,7.0,-2.9,42,29,22,29.79,29.71,21,3,21,0.00
2013-3-19,49.3,39.6,25.6,11.2,-1.5,-11.5,52,19,6,30.14,29.79,22,4,22,0.00
2013-3-20,52.2,35.0,19.6,22.2,16.4,9.2,69,49,28,30.13,29.65,8,1,8,0.00
2013-3-21,55.6,41.3,29.3,35.6,19.8,2.6,73,43,23,29.70,29.49,19,2,19,0.00
2013-3-22,43.4,30.2,23.4,24.7,16.0,5.3,83,57,37,29.77,29.62,10,1,10,0.00
2013-3-23,25.6,20.5,13.3,20.3,13.9,5.7,83,75,67,29.96,29.75,6,1,6,0.00
2013-3-24,29.2,19.7,8.3,15.9,9.5,1.5,74,65,50,29.98,29.87,6,1,6,0.00
2013-3-25,30.2,22.2,11.9,16.7,11.4,4.9,76,64,48,30.02,29.97,8,1,8,0.00
2013-3-26,44.6,33.2,18.0,29.3,20.5,9.2,71,60,43,29.99,29.79,8,1,8,0.00
2013-3-27,49.5,39.8,29.5,36.1,28.6,21.8,76,65,50,29.95,29.86,6,1,6,0.00
2013-3-28,61.9,46.3,32.9,36.6,29.9,25.4,77,56,32,30.00,29.92,9,1,9,0.00
2013-3-29,60.8,48.2,38.7,35.8,29.5,25.5,64,50,32,30.00,29.93,16,2,16,0.00
2013-3-30,64.4,49.0,37.8,35.7,29.0,19.6,79,49,20,30.07,29.91,12,3,12,0.00
2013-3-31,65.2,48.7,31.5,36.5,25.7,10.8,81,48,14,30.05,29.84,14,2,14,0.00
2013-4-1,47.5,39.5,28.8,31.8,27.0,19.9,79,61,42,30.01,29.90,8,1,8,0.00
2013-4-2,39.4,36.4,35.1,33.7,31.4,29.4,87,82,76,29.97,29.91,7,0,7,0.00
2013-4-3,54.7,44.8,34.0,43.8,34.7,29.9,89,70,49,30.01,29.92,9,1,9,0.00
2013-4-4,64.8,51.8,36.2,38.0,31.2,25.4,75,48,25,30.02,29.89,10,2,10,0.00
2013-4-5,70.4,55.8,45.4,37.1,28.0,23.0,69,36,19,29.89,29.65,17,3,17,0.00
2013-4-6,70.0,51.6,38.3,43.1,24.3,16.5,45,35,25,29.94,29.76,12,2,12,0.02
2013-4-7,67.0,51.7,38.2,31.5,27.3,22.1,70,41,22,29.91,29.75,13,2,13,0.00
2013-4-8,59.4,45.2,28.1,33.0,28.8,22.1,86,55,33,29.83,29.55,21,3,21,0.01
2013-4-9,28.1,20.0,12.4,23.9,14.0,6.5,84,77,72,30.10,29.81,8,2,8,0.00
2013-4-10,27.7,19.0,7.4,19.4,11.7,1.1,78,73,61,30.07,29.86,5,0,5,0.16
2013-4-11,53.3,38.4,19.6,34.0,26.7,13.8,84,65,42,29.92,29.73,16,1,16,0.04
2013-4-12,56.5,42.4,34.6,36.1,29.9,26.2,76,62,31,29.99,29.88,13,2,13,0.00
2013-4-13,63.2,46.9,30.2,35.3,28.7,22.7,80,54,23,29.96,29.52,12,2,12,0.03
2013-4-14,44.8,39.9,33.5,34.9,14.2,3.8,79,37,20,29.77,29.57,18,4,18,0.07
2013-4-15,37.6,28.1,22.9,25.8,20.2,13.6,82,73,40,29.98,29.75,8,1,8,0.01
2013-4-16,32.8,27.9,22.9,27.3,22.5,17.6,86,80,73,29.99,29.85,4,0,4,0.01
2013-4-17,31.5,25.8,19.4,25.9,21.1,13.8,91,82,71,30.08,29.91,8,1,8,0.00
2013-4-18,33.8,24.6,12.4,20.8,15.5,7.6,83,69,54,30.10,30.02,8,1,8,0.09
2013-4-19,45.7,35.5,21.4,28.0,22.7,14.1,75,61,42,30.07,29.96,10,1,10,0.00
2013-4-20,50.4,42.0,32.2,35.1,29.3,23.9,74,61,43,30.03,29.91,8,1,8,0.00
2013-4-21,60.1,46.3,33.1,36.4,28.5,24.8,78,52,29,30.07,29.99,13,1,13,0.00
2013-4-22,47.9,32.7,22.0,38.3,25.5,17.8,85,76,49,30.23,29.92,8,1,8,0.01
2013-4-23,30.2,24.3,17.6,20.4,16.8,13.2,84,73,61,30.18,30.07,6,1,6,0.35
2013-4-24,47.5,35.4,20.7,28.3,20.4,14.9,79,57,29,30.18,30.07,11,2,11,0.06
2013-4-25,55.4,43.0,29.2,33.4,24.2,16.2,62,49,32,30.14,29.96,6,1,6,0.00
2013-4-26,61.2,50.0,36.7,33.8,23.6,18.8,58,39,21,30.22,30.04,10,1,10,0.00
2013-4-27,70.9,58.0,40.0,25.9,19.9,12.7,48,25,13,30.21,30.07,12,2,12,0.00
2013-4-28,74.5,64.6,54.4,30.2,23.6,17.6,34,22,16,30.07,29.92,17,3,17,0.00
2013-4-29,77.4,63.5,44.1,38.6,27.6,19.1,60,30,13,30.00,29.72,10,2,10,0.00
2013-4-30,59.2,49.2,34.2,39.7,32.2,23.6,84,55,29,30.02,29.73,10,2,10,0.31
2013-5-1,34.7,30.2,23.8,30.1,25.5,19.1,89,83,75,30.48,30.02,0,0,0,0.17
2013-5-2,40.7,34.4,22.0,28.9,23.9,16.7,81,66,53,30.53,30.34,6,1,6,0.59
2013-5-3,54.5,42.4,27.0,33.1,27.9,21.2,80,59,39,30.34,30.10,7,1,9,0.00
2013-5-4,55.8,45.6,34.4,36.5,29.4,24.1,70,54,42,30.21,30.09,10,1,10,0.00
2013-5-5,56.9,45.8,32.8,31.0,26.4,20.3,62,48,33,30.21,30.09,8,1,8,0.00
2013-5-6,62.6,52.1,38.3,38.6,32.8,29.6,73,50,32,30.10,29.96,8,1,8,0.00
2013-5-7,70.2,53.6,42.7,47.3,37.2,28.9,83,56,31,30.05,29.95,10,2,10,0.26
2013-5-8,64.6,49.3,41.0,48.3,40.6,34.3,88,73,40,30.12,29.99,17,2,17,0.28
2013-5-9,56.2,47.8,41.6,46.3,41.0,35.8,89,78,61,30.20,30.10,16,1,16,0.10
2013-5-10,64.3,51.5,38.2,48.8,38.6,33.4,85,63,43,30.32,30.17,10,1,10,0.05
2013-5-11,63.9,53.2,40.1,46.4,38.5,32.0,76,58,43,30.37,30.22,8,1,8,0.02
2013-5-12,75.1,63.1,45.4,40.8,36.1,32.6,67,39,25,30.24,30.15,10,2,10,0.00
2013-5-13,83.2,70.5,57.2,44.3,37.1,31.4,45,31,18,30.21,30.10,11,2,11,0.00
2013-5-14,87.7,71.1,57.8,52.3,37.3,33.1,44,30,19,30.11,30.00,20,3,20,0.05
2013-5-15,79.0,65.1,54.0,45.7,38.5,32.1,66,39,22,30.06,29.98,12,2,12,0.00
2013-5-16,79.9,65.2,51.1,48.6,40.1,32.9,68,43,20,30.02,29.89,14,2,14,0.00
2013-5-17,82.6,68.1,49.7,45.8,34.0,16.5,62,33,13,29.98,29.86,10,2,10,0.00
2013-5-18,74.7,64.8,52.2,42.8,29.3,15.7,61,28,15,29.97,29.85,16,3,16,0.04
2013-5-19,70.9,58.6,49.7,33.7,28.1,24.6,51,32,21,29.92,29.84,14,3,14,0.00
2013-5-20,66.8,55.2,45.5,44.7,34.9,25.6,69,48,30,30.05,29.91,12,2,12,0.01
2013-5-21,70.2,55.0,39.1,39.2,31.2,24.8,75,44,21,30.07,29.93,17,2,17,0.00
2013-5-22,71.5,58.2,41.9,45.2,36.6,27.8,73,46,30,30.12,29.96,10,2,10,0.01
2013-5-23,67.0,55.0,46.4,49.2,44.3,40.3,84,68,50,30.13,30.02,7,1,7,0.00
2013-5-24,78.1,63.2,44.6,51.3,42.8,33.6,85,52,24,30.06,29.99,9,1,9,0.01
2013-5-25,83.5,69.3,50.2,53.5,42.0,24.5,76,42,13,30.06,29.96,8,1,8,0.00
2013-5-26,84.6,68.7,55.8,41.4,31.6,20.6,42,27,8,30.02,29.95,13,2,13,0.00
2013-5-27,83.5,68.2,53.1,37.1,24.8,16.7,40,21,10,29.95,29.83,12,2,12,0.00
2013-5-28,77.4,63.7,49.0,44.8,34.2,24.3,50,35,19,29.91,29.70,10,2,10,0.00
2013-5-29,59.6,53.1,45.5,47.3,39.8,30.2,86,62,40,29.80,29.72,15,2,15,0.34
2013-5-30,68.8,56.8,47.0,35.8,27.6,17.7,53,34,16,29.93,29.75,19,4,19,0.01
2013-5-31,66.6,58.2,46.3,25.7,18.8,10.7,38,23,13,30.06,29.89,20,4,20,0.00
2013-6-1,70.6,58.8,48.6,40.0,32.1,18.8,45,37,23,30.24,30.05,12,2,12,0.00
2013-6-2,76.0,61.1,40.7,39.9,33.5,26.2,59,38,24,30.23,29.92,8,1,8,0.00
2013-6-3,91.4,71.8,53.3,40.5,29.6,24.8,40,23,10,30.01,29.87,15,2,15,0.00
2013-6-4,69.8,59.5,49.7,46.8,38.9,23.7,66,48,25,30.23,30.00,15,2,15,0.00
2013-6-5,60.3,50.6,45.2,46.9,41.1,38.3,79,70,59,30.23,30.14,7,1,7,0.01
2013-6-6,75.8,61.2,42.3,49.8,40.2,35.6,83,51,28,30.18,30.09,13,2,13,0.00
2013-6-7,79.6,64.9,50.4,52.0,40.6,34.4,58,42,29,30.17,29.90,7,1,7,0.01
2013-6-8,80.5,67.6,56.0,49.9,41.4,34.4,50,39,31,30.11,29.86,12,2,12,0.00
2013-6-9,83.9,69.0,49.0,46.3,38.5,32.0,64,36,19,30.10,30.02,11,2,11,0.00
2013-6-10,99.7,79.7,61.9,45.2,33.9,26.9,36,21,7,30.05,29.96,15,2,15,0.00
2013-6-11,97.9,80.4,63.7,39.0,27.9,17.6,30,15,5,30.07,29.93,13,3,13,0.00
2013-6-12,88.0,75.5,57.8,49.8,30.3,20.0,51,21,13,30.20,30.07,11,2,11,0.00
2013-6-13,81.2,67.9,55.1,55.5,50.0,43.8,81,55,34,30.20,30.00,8,1,8,0.00
2013-6-14,93.8,74.1,58.3,46.5,38.1,25.8,55,31,6,30.08,29.99,12,2,12,0.00
2013-6-15,78.7,68.7,53.3,49.0,45.0,39.2,62,44,33,30.15,30.06,11,2,11,0.00
2013-6-16,82.8,67.6,54.7,52.9,44.6,34.0,71,46,26,30.23,30.12,13,2,13,0.02
2013-6-17,76.7,65.9,52.9,51.8,43.6,33.1,62,45,35,30.22,30.11,12,2,12,0.00
2013-6-18,79.7,65.7,51.5,53.6,48.3,41.9,79,57,28,30.18,29.99,9,2,9,0.06
2013-6-19,88.2,71.9,49.3,54.5,38.7,14.0,81,40,8,30.08,29.82,11,2,11,0.00
2013-6-20,84.4,73.9,57.4,45.2,26.9,11.9,34,19,10,30.02,29.88,10,2,10,0.00
2013-6-21,90.4,76.0,56.3,52.1,36.6,17.9,48,28,7,30.02,29.91,10,2,10,0.00
2013-6-22,82.4,70.0,53.8,48.8,41.1,20.5,56,38,11,30.05,29.87,13,2,13,0.00
2013-6-23,79.4,67.3,52.0,50.8,43.2,36.1,56,43,29,30.10,29.94,11,2,11,0.00
2013-6-24,90.4,74.1,56.2,48.2,34.4,17.6,56,29,6,30.02,29.88,14,2,14,0.00
2013-6-25,89.6,76.9,60.1,36.3,30.6,22.2,30,19,15,30.11,29.92,9,2,9,0.00
2013-6-26,94.7,79.5,59.9,44.2,34.3,28.6,35,21,11,30.18,30.10,11,2,11,0.00
2013-6-27,93.1,81.5,66.6,42.0,36.1,29.5,35,21,12,30.31,30.17,13,2,13,0.00
2013-6-28,87.5,74.6,59.2,60.0,48.9,39.3,86,43,26,30.33,30.21,14,2,14,0.32
2013-6-29,81.4,69.7,55.4,59.6,54.2,50.6,89,61,38,30.30,30.18,12,1,12,0.01
2013-6-30,76.0,67.4,61.2,58.4,53.5,50.1,76,62,48,30.26,30.21,9,1,9,0.03
2013-7-1,77.0,66.3,54.4,54.6,51.2,47.6,81,60,43,30.33,30.24,12,2,12,0.00
2013-7-2,78.7,67.5,52.6,56.4,48.2,42.5,78,52,34,30.31,30.19,10,1,10,0.00
2013-7-3,84.6,70.7,54.4,50.1,45.1,40.1,66,42,26,30.20,30.02,13,2,13,0.00
2013-7-4,89.5,76.5,63.2,48.9,43.8,39.1,44,33,22,30.08,30.02,11,2,11,0.00
2013-7-5,86.8,73.6,64.3,54.0,48.3,42.0,52,41,30,30.04,29.97,10,2,10,0.00
2013-7-6,92.2,76.5,59.4,52.6,47.7,42.5,78,39,19,30.09,29.97,15,2,15,0.07
2013-7-7,88.2,74.3,61.0,57.6,51.2,45.8,71,45,28,30.15,30.07,14,2,14,0.04
2013-7-8,91.3,76.2,63.2,55.6,47.4,36.1,66,39,22,30.19,30.11,19,2,20,0.00
2013-7-9,94.0,79.8,64.6,49.2,40.6,35.0,39,26,15,30.28,30.19,12,2,12,0.00
2013-7-10,85.3,73.5,59.8,58.4,49.1,38.5,60,43,29,30.30,30.11,9,2,9,0.01
2013-7-11,92.7,78.7,59.2,55.8,50.2,40.3,67,40,18,30.18,29.98,12,2,12,0.00
2013-7-12,90.9,74.6,65.7,59.1,51.1,43.8,72,46,26,30.16,30.03,10,2,10,0.06
2013-7-13,87.1,71.5,60.5,63.4,55.9,53.5,78,60,34,30.25,30.13,11,1,11,0.05
2013-7-14,79.9,69.0,57.8,59.9,55.8,49.7,82,64,45,30.29,30.17,9,2,9,0.01
2013-7-15,77.2,68.0,59.9,63.3,58.7,50.8,85,73,56,30.26,30.18,6,1,7,0.04
2013-7-16,79.6,67.7,52.2,56.0,49.1,40.7,86,55,26,30.27,30.17,14,2,14,0.01
2013-7-17,85.3,71.6,54.4,57.5,49.5,44.6,74,48,29,30.27,30.17,9,1,9,0.00
2013-7-18,90.4,70.3,61.2,58.2,52.5,46.4,83,57,28,30.25,30.16,15,2,15,0.47
2013-7-19,81.0,69.5,59.4,61.8,56.2,53.1,81,64,44,30.26,30.15,12,2,12,0.00
2013-7-20,88.2,70.1,56.7,60.1,53.2,47.2,81,58,36,30.16,30.07,10,2,14,0.00
2013-7-21,82.8,70.4,54.5,59.6,52.6,44.4,78,55,36,30.08,30.01,13,2,13,0.00
2013-7-22,89.6,76.6,60.1,54.6,44.3,22.7,49,33,8,30.10,30.01,15,2,15,0.00
2013-7-23,90.4,75.8,64.3,54.5,43.4,19.6,58,34,11,30.24,30.06,15,2,15,0.00
2013-7-24,85.0,70.1,60.8,61.7,53.9,49.1,76,58,39,30.27,30.12,21,2,21,0.07
2013-7-25,77.8,65.0,56.3,59.0,52.8,49.4,82,66,48,30.29,30.13,14,1,14,0.06
2013-7-26,83.3,69.6,54.4,55.4,48.5,42.1,77,50,28,30.31,30.20,13,2,13,0.00
2013-7-27,74.7,64.7,55.4,56.3,50.1,41.2,86,60,43,30.22,30.12,10,2,10,0.12
2013-7-28,68.6,60.7,56.5,62.4,56.1,52.7,91,85,73,30.15,30.02,3,1,8,0.09
2013-7-29,72.4,63.2,55.1,62.8,53.8,46.9,90,73,46,30.23,30.03,12,1,12,0.04
2013-7-30,83.3,70.5,58.7,56.3,51.0,46.6,76,52,32,30.29,30.22,12,2,12,0.00
2013-7-31,85.9,69.7,56.9,60.0,50.7,44.8,77,53,28,30.34,30.23,11,1,11,0.19
2013-8-1,90.2,71.4,54.9,57.6,50.7,45.4,79,52,28,30.28,30.08,19,1,19,0.01
2013-8-2,90.2,73.5,58.7,64.0,50.9,44.4,73,48,24,30.15,30.05,10,2,10,0.05
2013-8-3,91.4,70.1,58.5,63.5,54.2,47.5,87,62,25,30.31,30.13,16,2,16,0.39
2013-8-4,86.8,70.3,54.4,60.1,51.2,43.6,82,55,23,30.26,30.15,13,1,13,0.00
2013-8-5,87.5,72.3,61.2,54.9,47.7,41.1,57,43,28,30.18,30.09,10,2,11,0.00
2013-8-6,88.6,72.4,61.6,53.7,44.4,38.5,53,38,24,30.13,30.07,13,2,13,0.02
2013-8-7,73.1,65.0,56.5,54.4,48.6,38.9,73,56,41,30.18,30.09,7,1,7,0.00
2013-8-8,72.4,62.8,52.2,57.3,51.3,45.8,81,67,48,30.23,30.10,9,1,9,0.05
2013-8-9,77.4,63.0,51.3,54.4,48.2,43.3,83,61,37,30.24,30.18,14,2,14,0.00
2013-8-10,83.9,68.2,51.5,49.9,44.5,40.4,69,46,25,30.26,30.16,9,1,9,0.00
2013-8-11,83.3,68.2,60.1,55.3,46.7,40.9,74,47,29,30.27,30.19,10,2,10,0.10
2013-8-12,81.9,64.4,52.7,56.2,49.5,43.5,80,60,34,30.31,30.19,11,2,11,0.21
2013-8-13,74.7,63.9,51.7,52.8,47.2,43.1,74,56,41,30.28,30.19,13,1,13,0.00
2013-8-14,80.8,64.1,50.2,56.7,47.5,42.1,79,57,32,30.26,30.17,16,1,16,0.18
2013-8-15,81.4,66.2,52.6,53.6,44.6,37.6,66,47,26,30.25,30.15,8,1,8,0.00
2013-8-16,88.4,71.8,55.4,50.0,42.9,32.3,61,39,16,30.24,30.18,8,1,8,0.00
2013-8-17,90.4,74.5,59.6,47.5,38.9,29.5,51,31,13,30.23,30.11,8,1,8,0.00
2013-8-18,94.3,75.3,61.4,47.1,39.4,32.1,40,29,17,30.22,30.13,11,2,11,0.00
2013-8-19,93.8,76.2,60.7,49.2,40.9,35.7,46,30,18,30.20,30.11,9,1,9,0.00
2013-8-20,97.6,79.4,63.4,47.2,37.9,30.2,38,25,11,30.14,30.08,9,1,9,0.00
2013-8-21,90.9,77.0,65.7,49.5,44.3,37.3,48,32,21,30.23,30.13,8,1,8,0.00
2013-8-22,83.2,69.8,59.0,59.8,51.6,46.5,67,53,39,30.28,30.18,11,1,11,0.01
2013-8-23,84.8,71.5,59.4,55.2,51.3,45.1,73,51,34,30.25,30.05,16,2,16,0.01
2013-8-24,86.9,71.6,57.8,55.6,48.5,43.6,62,45,30,30.20,30.09,12,2,12,0.02
2013-8-25,86.4,72.9,59.6,54.6,48.2,43.7,57,43,25,30.22,30.16,10,2,10,0.00
2013-8-26,89.8,73.6,61.2,58.5,52.1,48.2,71,49,28,30.23,30.17,10,2,10,0.04
2013-8-27,89.8,75.3,60.3,58.2,52.3,48.6,73,48,28,30.22,30.14,11,2,11,0.00
2013-8-28,91.3,77.2,62.6,53.4,47.3,40.3,57,37,24,30.21,30.15,10,2,10,0.00
2013-8-29,92.3,77.6,63.7,49.4,44.6,40.5,44,32,19,30.25,30.18,15,2,15,0.00
2013-8-30,92.9,76.6,63.5,51.8,46.5,42.0,47,36,21,30.26,30.17,11,2,11,0.00
2013-8-31,92.2,74.0,62.5,57.6,46.9,42.6,69,40,21,30.21,30.14,16,2,16,0.06
2013-9-1,77.4,69.1,60.3,57.1,52.4,44.7,69,56,46,30.26,30.18,10,1,10,0.00
2013-9-2,88.6,72.5,57.2,57.2,50.4,43.0,74,49,28,30.20,30.12,9,1,9,0.00
2013-9-3,90.2,77.7,64.1,56.5,49.4,44.8,65,39,25,30.23,30.14,10,2,10,0.02
2013-9-4,90.7,73.4,63.0,56.4,50.5,47.4,66,46,24,30.28,30.20,11,1,16,0.02
2013-9-5,89.6,74.9,61.6,55.6,50.1,46.0,64,44,29,30.28,30.20,8,1,8,0.01
2013-9-6,93.2,78.0,66.6,51.6,46.1,40.6,46,34,19,30.24,30.14,13,2,13,0.00
2013-9-7,90.2,76.1,61.6,51.4,45.5,41.6,50,35,24,30.20,30.12,11,1,11,0.00
2013-9-8,85.7,73.0,60.1,48.2,44.8,40.4,50,38,24,30.13,30.00,19,2,19,0.00
2013-9-9,81.7,66.2,58.0,58.1,51.4,44.8,90,62,34,30.13,30.01,13,2,13,0.74
2013-9-10,64.1,58.6,56.0,57.9,55.1,53.3,91,88,79,30.24,30.10,5,0,5,0.43
2013-9-11,61.4,58.5,56.7,59.4,56.4,54.7,94,93,90,30.26,30.21,10,1,10,2.37
2013-9-12,60.1,57.9,56.3,59.0,56.4,54.9,96,95,94,30.32,30.26,9,2,9,2.11
2013-10-13,56.7,51.1,36.7,42.5,39.9,31.4,83,66,57,30.13,29.93,7,1,7,0.00
2013-10-14,53.3,46.1,39.8,42.2,36.1,30.6,81,68,55,30.15,29.87,10,1,10,0.01
2013-10-15,43.4,38.3,34.6,32.2,28.1,25.0,80,67,54,30.24,30.14,7,1,7,0.00
2013-10-16,50.2,38.5,27.7,32.4,26.6,21.6,80,63,46,30.16,30.01,8,1,8,0.01
2013-10-17,47.3,40.8,34.4,31.5,27.6,22.3,80,59,48,30.10,30.03,8,1,8,0.01
2013-10-18,40.9,34.8,30.6,33.3,28.9,25.2,88,79,68,30.15,30.06,7,1,7,0.19
2013-10-19,58.1,46.8,30.8,35.6,26.3,20.4,82,46,29,30.09,29.94,13,2,13,0.00
2013-10-20,50.0,42.0,32.9,34.8,28.7,21.8,87,62,34,30.11,29.93,14,1,14,0.09
2013-10-21,55.3,42.4,29.3,40.6,29.1,25.4,86,63,36,30.15,30.08,12,2,12,0.02
2013-10-22,58.7,47.9,36.9,36.1,29.7,23.8,66,50,38,30.21,30.13,9,1,9,0.00
2013-10-23,61.6,48.3,39.8,35.8,29.8,24.5,67,50,34,30.22,30.12,7,1,7,0.00
2013-10-24,51.8,41.1,31.9,38.3,32.1,25.5,82,71,59,30.23,30.18,5,1,5,0.00
2013-10-25,64.8,48.3,35.1,42.4,31.3,25.9,83,55,31,30.24,30.12,5,1,5,0.00
2013-10-26,56.9,45.1,35.6,36.7,29.8,24.3,66,55,43,30.31,30.14,5,1,7,0.00
2013-10-27,65.2,53.1,39.8,32.4,25.9,21.3,62,36,24,30.14,29.92,10,1,10,0.00
2013-10-28,50.2,36.5,30.6,29.9,27.3,23.5,86,72,37,30.05,29.93,10,1,10,0.02
2013-10-29,37.1,33.8,31.1,32.2,29.7,27.5,87,85,83,30.01,29.89,3,0,3,0.01
2013-10-30,41.8,35.7,29.9,36.3,31.2,26.2,88,84,72,29.91,29.84,8,1,8,0.34
2013-10-31,49.7,41.3,32.9,30.1,24.5,21.0,76,52,34,29.92,29.81,24,4,24,0.00
2013-11-1,49.0,41.3,33.3,33.6,25.7,19.1,64,54,33,30.20,29.91,11,2,11,0.00
2013-11-2,60.3,42.4,29.2,32.7,21.5,13.1,69,47,18,30.19,29.81,13,1,13,0.00
2013-11-3,64.1,50.5,38.3,26.6,21.1,13.2,56,33,21,29.85,29.66,16,2,16,0.00
2013-11-4,38.9,34.5,29.7,26.0,20.1,15.0,78,57,43,30.00,29.84,6,1,10,0.00
2013-11-5,41.4,32.1,24.8,23.8,14.0,2.0,66,48,26,30.09,29.89,12,1,12,0.00
2013-11-6,47.5,37.8,27.5,19.3,14.2,5.1,49,38,29,30.27,30.06,22,3,22,0.00
2013-11-7,52.4,41.0,29.7,27.5,22.0,15.7,59,47,35,30.31,29.99,6,1,6,0.00
2013-11-8,61.6,52.0,40.5,24.1,20.8,14.0,48,30,20,30.04,29.83,19,3,19,0.00
2013-11-9,56.2,46.6,38.7,31.7,25.1,18.8,59,44,29,30.22,30.03,14,1,14,0.00
2013-11-10,63.0,48.1,36.7,36.5,26.2,21.8,63,45,23,30.21,30.15,12,1,12,0.00
2013-11-11,65.5,43.7,30.8,30.9,24.5,19.0,78,50,21,30.52,30.18,11,2,11,0.00
2013-11-12,53.5,41.6,31.9,32.9,27.6,23.2,75,58,41,30.51,30.32,6,1,6,0.00
2013-11-13,65.0,51.6,36.9,28.1,19.5,13.3,59,30,17,30.32,30.04,14,1,14,0.00
2013-11-14,52.9,45.8,39.6,33.4,26.8,20.3,61,48,29,30.09,29.80,12,1,12,0.00
2013-11-15,57.1,47.3,37.8,31.0,20.1,12.2,62,36,21,29.80,29.56,22,4,22,0.00
2013-11-16,50.8,41.4,34.6,26.6,21.5,15.8,59,45,29,29.62,29.41,22,3,22,0.00
2013-11-17,49.5,39.2,32.0,25.0,18.0,12.9,73,44,25,30.05,29.60,26,3,26,0.00
2013-11-18,58.9,41.9,29.9,23.4,17.3,11.8,58,40,17,30.12,30.02,15,1,15,0.00
2013-11-19,52.7,46.1,36.7,26.6,20.7,12.1,50,37,27,30.02,29.79,9,1,14,0.00
2013-11-20,55.1,45.8,32.8,28.8,24.3,19.7,61,43,32,30.00,29.82,14,2,14,0.00
2013-11-21,32.4,18.0,14.0,21.6,10.9,6.8,78,73,62,30.40,30.00,6,1,6,0.00
2013-11-22,37.1,27.1,17.3,22.8,17.2,10.3,75,66,56,30.46,30.33,4,0,4,0.08
2013-11-23,34.7,28.0,24.3,22.9,18.5,15.5,76,67,56,30.45,30.20,6,0,6,0.06
2013-11-24,41.9,31.2,21.6,29.9,22.1,14.9,80,69,35,30.20,29.94,9,0,9,0.01
2013-11-25,41.4,35.4,29.0,25.2,22.2,14.9,70,59,36,30.24,30.01,9,1,9,0.00
2013-11-26,47.0,34.2,26.5,29.3,21.8,18.8,74,61,42,30.30,30.18,8,1,8,0.00
2013-11-27,56.5,42.0,29.3,30.6,22.7,18.1,65,48,30,30.19,30.03,7,1,7,0.00
2013-11-28,45.9,36.0,29.9,28.8,23.3,18.9,68,60,48,30.18,30.09,7,0,7,0.00
2013-11-29,56.2,46.1,33.8,24.9,22.1,17.4,68,40,24,30.15,30.07,14,3,14,0.00
2013-11-30,54.9,44.9,37.3,24.3,18.4,14.9,43,35,25,30.15,30.10,12,2,12,0.00
2013-12-1,50.2,44.7,35.3,24.9,20.5,15.3,48,38,31,30.13,29.85,23,3,23,0.00
2013-12-2,54.5,47.8,42.8,25.2,22.4,19.3,45,37,28,29.88,29.59,24,6,24,0.00
2013-12-3,51.1,34.0,11.2,29.5,17.8,4.0,76,54,33,29.75,29.57,20,3,20,0.00
2013-12-4,13.1,8.4,2.9,4.3,0.8,-4.6,77,71,67,29.95,29.70,5,0,5,0.00
2013-12-5,6.8,2.5,-5.0,-1.8,-5.9,-12.7,72,68,61,29.98,29.87,3,0,4,0.04
2013-12-6,8.8,2.6,-3.1,-0.3,-5.6,-10.8,72,68,64,30.06,29.97,5,0,5,0.01
2013-12-7,10.3,5.2,0.7,1.5,-3.1,-7.3,70,68,65,30.04,29.71,6,1,6,0.00
2013-12-8,18.5,8.7,0.4,8.8,0.7,-7.5,73,70,65,29.93,29.64,6,1,6,0.05
2013-12-9,26.3,12.6,-0.7,10.4,1.2,-7.9,74,61,39,30.00,29.88,28,2,28,0.04
2013-12-10,41.2,28.4,17.5,16.3,9.3,2.3,61,45,32,30.15,29.82,27,4,27,0.02
2013-12-11,28.1,21.7,12.2,16.9,11.2,4.6,75,64,49,30.21,30.15,6,1,6,0.00
2013-12-12,48.2,35.7,26.5,22.1,13.0,8.4,49,40,27,30.20,29.92,8,1,8,0.00
2013-12-13,46.4,37.8,29.9,18.6,14.8,8.7,57,40,26,30.09,29.84,17,1,17,0.00
2013-12-14,39.2,30.5,22.0,19.8,15.4,12.2,67,54,40,30.18,30.09,7,1,7,0.00
2013-12-15,51.7,43.0,32.4,23.7,17.7,12.4,50,37,24,30.12,30.03,22,4,22,0.00
2013-12-16,54.9,47.4,38.5,19.5,15.5,8.6,36,28,18,30.20,30.04,27,6,27,0.00
2013-12-17,53.8,45.3,34.6,23.3,17.5,12.9,44,33,24,30.24,30.05,12,2,12,0.00
2013-12-18,56.7,47.5,41.2,25.5,17.5,13.9,35,30,20,30.05,29.77,6,1,6,0.00
2013-12-19,47.7,34.9,17.1,25.9,18.8,12.0,81,54,33,29.83,29.60,14,2,14,0.00
2013-12-20,27.5,21.3,16.9,20.6,15.5,11.5,80,78,74,29.82,29.64,4,1,6,0.00
2013-12-21,31.0,24.8,19.3,23.3,18.3,13.4,79,76,67,29.86,29.56,5,0,6,0.00
2013-12-22,32.8,25.6,18.2,21.6,16.7,12.0,80,69,50,30.12,29.85,13,1,13,0.09
2013-12-23,37.1,26.7,14.9,24.9,17.9,8.7,79,70,58,30.15,30.00,9,1,9,0.01
2013-12-24,48.1,37.3,23.6,30.2,17.9,6.2,61,46,30,30.19,29.91,27,4,27,0.00
2013-12-25,41.2,31.6,23.4,15.2,9.6,5.2,49,40,25,30.27,30.11,14,2,14,0.00
2013-12-26,49.3,40.3,32.0,16.3,11.9,5.1,46,32,22,30.22,30.10,16,2,16,0.00
2013-12-27,54.4,41.1,32.2,27.4,19.9,13.6,50,43,32,30.21,30.02,5,0,5,0.00
2013-12-28,57.2,40.2,22.0,23.9,19.9,14.9,75,47,24,30.13,29.88,14,2,14,0.00
2013-12-29,39.2,26.2,16.2,20.9,14.1,9.2,77,62,32,30.13,29.83,29,2,29,0.04
2013-12-30,42.5,35.2,26.5,18.0,13.2,10.5,53,41,30,30.12,29.89,15,2,15,0.00
2013-12-31,51.1,41.5,33.7,24.9,19.3,13.6,49,41,33,30.03,29.90,18,2,18,0.00
2014-1-1,40.7,32.7,22.1,28.7,20.9,15.4,77,63,45,30.20,29.87,17,2,17,0.00
2014-1-2,43.4,31.1,21.2,23.6,17.9,14.0,76,59,39,30.15,29.96,13,1,13,0.00